SCP
0 0 0 0 -0 -0 -0 -0 -0 -0 -0 -0 -0 -0 -0 -0 -0 -0 -0 0 0 0 0 0 0 0 0 0 0 0 0 0 0 0 0 0 0 0 0 0 0 0 0 0 0 0 0
0 0 0 0 0 -0 -0 -0 -0 -0 -0 -0 -0 -0 -0 -0 -0 -0 -0 0 0 0 0 0 0 0 0 0 0 0 0 0 0 0 0 0 0 0 0 0 0 0 0 0 0 0 0
0 0 0 0 0 0 -0 -0 -0 -0 -0 -0 -0 -0 -0 -0 -0 -0 -0 0 0 0 0 0 0 0 0 0 0 0 0 0 0 0 0 0 0 0 0 0 0 0 0 0 0 0 0
0 0 0 0 0 0 0 -0 -0 -0 -0 -0 -0 -0 -0 -0 -0 -0 -0 0 0 0 0 0 0 0 0 0 0 0 0 0 0 0 0 0 0 0 0 0 0 0 0 0 0 0 0
0 0 0 0 0 0 0 0 0 -0 -0 -0 -0 -0 -0 -0 -0 -0 -0 0 0 0 0 0 0 0 0 0 0 0 0 0 0 0 0 0 0 0 0 0 0 0 0 0 0 0 0
0 0 0 0 0 0 0 0 0 0 -0 0 -0 -0 -0 -0 -0 -0 -0 0 0 0 0 0 0 0 0 0 0 0 0 0 0 0 0 0 0 0 0 0 0 0 0 0 0 0 0
0 0 0 0 0 0 0 0 0 0 0 0 0 0 -0 -0 -0 0 0 0 0 0 0 0 0 0 0 0 0 0 0 0 0 0 0 0 0 0 0 0 0 0 0 0 0 0 0
0 0 0 0 0 0 0 0 0 0 0 0 0 0 0 0 0 0 0 0 0 0 0 0 0 0 0 0 0 0 0 0 0 0 0 0 0 0 0 0 0 0 0 0 0 0 0
0 0 0 0 0 0 0 0 0 0 0 0 0 0 0 0 0 0 0 0 0 0 0 0 0 0 0 0 0 0 0 0 0 0 0 0 0 0 0 0 0 0 0 0 0 0 0
0 0 0 0 -0 0 0 0 0 0 0 0 0 0 0 0 0 0 0 0 0 0 0 0 0 0 0 0 0 0 0 0 0 0 0 0 0 0 0 0 0 0 0 0 0 0 0
-0 -0 -0 -0 -0 -0 -0 0 0 0 0 0 0 0 0 0 0 0 0 0 0 0 0 0 0 0 0 0 0 0 0 0 0 0 0 0 0 0 0 0 0 0 0 0 0 0 0
-0 -0 -0 -0 -0 -0 -0 -0 -0 0 0 0 0 0 0 0 0 0 0 0 0 0 0 0 0 0 0 0 0 0 0 0 0 0 0 0 0 0 0 0 0 0 0 0 0 0 0
-0 -0 -0 -0 -0 -0 -0 -0 -0 -0 0 0 0 0 0 0 0 0 0 0 0 0 0 0 0 0 0 0 0 0 0 0 0 0 0 0 0 0 0 0 0 0 0 0 0 0 0
0 -0 -0 -0 -0 -0 -0 -0 -0 -0 -0 0 0 0 0 0 0 0 0 0 0 0 0 0 0 0 0 0 0 0 0 0 0 0 0 0 0 0 0 0 0 0 0 0 0 0 0
0 -0 -0 -0 -0 -0 -0 -0 -0 -0 0 0 -0 0 0 0 0 0 0 0 0 0 0 0 0 0 0 0 0 0 0 0 0 0 0 0 0 0 0 0 0 0 0 0 0 0 0
-0 -0 -0 -0 -0 -0 -0 -0 -0 -0 -0 -0 -0 0 0 0 0 0 0 0 0 0 0 0 0 0 0 0 0 0 0 0 0 0 0 0 0 0 0 0 0 0 0 0 0 0 0
-0 -0 -0 -0 -0 -0 -0 -0 -0 -0 -0 -0 0 0 0 0 0 0 0 0 0 0 0 0 0 0 0 0 0 0 0 0 0 0 0 0 0 0 0 0 0 0 0 0 0 0 0
0 -0 -0 -0 -0 -0 -0 -0 -0 -0 -0 0 0 0 0 0 0 0 0 0 0 0 0 0 0 0 0 0 0 0 0 0 0 0 0 0 0 0 0 0 0 0 0 0 0 0 0
0 0 0 0 -0 -0 -0 -0 -0 -0 -0 0 0 0 0 0 0 0 0 0 0 0 0 0 0 0 0 0 0 0 0 0 0 0 0 0 0 0 0 0 0 0 0 0 0 0 0
0 0 0 -0 -0 -0 -0 -0 -0 -0 -0 0 0 0 0 0 0 0 0 0 0 0 0 0 0 0 0 0 0 0 0 0 0 0 0 0 0 0 0 0 0 0 0 0 0 0 0
0 0 -0 -0 -0 -0 -0 -0 -0 -0 -0 0 0 0 0 0 0 0 0 0 0 0 0 0 0 0 0 0 0 0 0 0 0 0 0 0 0 0 0 0 0 0 0 0 0 0 0
-0 -0 -0 -0 -0 -0 -0 -0 -0 -0 0 0 0 0 0 0 0 0 0 0 0 0 0 0 0 0 0 0 0 0 0 0 0 0 0 0 0 0 0 0 0 0 0 0 0 0 0
-0 -0 -0 -0 -0 -0 -0 -0 -0 -0 -0 0 0 0 0 0 0 0 0 0 0 0 0 0 0 0 0 0 0 0 0 0 0 0 0 0 0 0 0 0 0 0 0 0 0 0 0
-0 -0 -0 -0 -0 -0 -0 -0 -0 -0 0 -0 0 0 0 0 0 0 0 0 0 0 0 0 0 0 0 0 0 0 0 0 0 0 0 0 0 0 0 0 0 0 0 0 0 0 0
-0 -0 -0 -0 -0 -0 -0 -0 -0 -0 0 -0 0 0 0 0 0 0 0 0 0 0 0 0 0 0 0 0 0 0 0 0 0 0 0 0 0 0 0 0 0 0 0 0 0 0 0
-0 -0 -0 -0 -0 -0 -0 -0 -0 -0 -0 -0 0 0 0 0 0 0 0 0 0 0 0 0 0 0 0 0 0 0 0 0 0 0 0 0 0 0 0 0 0 0 0 0 0 0 0
-0 -0 -0 -0 -0 -0 0 -0 0 0 0 0 0 0 0 0 0 0 0 0 0 0 0 0 0 0 0 0 0 0 0 0 0 0 0 0 0 0 0 0 0 0 0 0 0 0 0
-0 -0 -0 -0 0 0 0 0 0 0 0 0 -0 0 0 0 0 0 0 0 0 0 0 0 0 0 0 0 0 0 0 0 0 0 0 0 0 0 0 0 0 0 0 0 0 0 0
0 -0 -0 -0 0 0 0 0 0 0 0 0 0 0 0 0 0 0 0 0 0 0 0 0 0 0 0 0 0 0 0 0 0 0 0 0 0 0 0 0 0 0 0 0 0 0 0
Wind_Speed_500mb
30 29 29 29 29 29 28 28 26 26 26 27 27 27 29 32 24 12 11 15 17 18 18 18 17 16 12 11 16 12 1 36 40 40 35 39 42 16 11 9 11 7 7 16 28 27 24
32 31 28 28 30 30 30 29 28 27 27 27 26 27 28 29 28 14 7 7 13 16 17 17 17 17 15 7 9 5 20 30 39 39 36 33 28 21 12 7 9 8 9 18 20 26 12
40 31 29 30 31 31 31 32 31 32 30 29 28 27 26 26 26 16 8 4 6 13 16 16 17 16 17 20 5 11 25 29 31 31 33 31 20 23 14 7 3 3 8 12 4 2 8
37 36 36 36 35 34 34 34 34 33 34 32 30 28 25 23 22 17 11 8 8 10 14 15 15 14 13 11 18 17 28 28 26 24 19 28 19 17 5 7 8 5 7 6 3 3 6
39 39 38 39 40 40 39 38 37 37 36 36 33 29 27 23 20 18 12 6 4 8 14 15 15 13 9 8 18 25 27 26 26 23 17 25 21 7 7 10 7 9 5 6 12 4 3
39 41 41 41 43 42 42 41 40 39 38 36 33 30 26 22 17 15 9 2 5 11 17 15 12 7 13 5 12 28 29 24 21 27 20 12 7 6 6 7 9 10 7 6 7 4 8
46 43 44 45 44 44 43 40 40 38 37 34 32 28 25 21 17 12 7 8 9 6 21 12 8 2 7 12 17 29 32 27 28 13 8 3 5 14 16 13 6 11 6 5 5 6 4
48 47 46 47 44 43 41 40 38 38 35 32 30 26 23 20 17 13 15 10 9 4 5 22 20 17 7 14 8 31 33 17 12 9 9 9 15 10 11 8 8 4 3 11 10 4 11
48 45 43 42 43 42 40 39 39 38 35 32 31 28 22 19 17 17 19 16 11 6 2 4 7 11 21 18 4 30 35 15 7 10 10 11 6 10 12 8 11 8 11 10 16 2 3
46 45 46 44 44 43 42 41 40 39 35 32 30 28 22 17 14 20 20 18 11 7 7 5 6 5 10 12 5 18 28 7 4 13 14 9 3 8 7 10 14 6 17 11 8 6 6
41 46 46 48 48 44 42 42 42 39 34 29 27 24 18 18 11 24 13 18 12 9 2 3 5 7 12 9 17 5 17 4 12 9 10 7 8 6 5 10 15 12 8 12 8 8 2
48 52 50 49 49 47 43 42 42 39 32 23 13 13 6 17 22 21 20 17 14 8 10 4 4 3 8 10 6 8 6 10 6 6 3 10 4 4 8 3 8 9 9 11 7 6 5
38 40 49 53 52 51 46 43 43 41 33 15 4 7 3 12 19 24 22 20 7 7 6 6 5 6 11 10 9 9 9 13 6 4 7 9 3 3 1 5 1 6 9 4 3 1 9
47 48 49 52 54 51 49 47 46 45 29 6 18 14 7 5 16 24 25 5 7 4 5 4 5 7 9 10 8 8 8 6 11 8 6 4 2 10 15 5 3 7 11 8 9 6 4
48 52 56 55 55 51 50 52 49 43 18 24 12 10 19 3 17 24 9 7 3 2 3 4 3 8 4 5 7 11 9 5 10 9 5 2 6 10 5 7 5 4 6 3 1 1 2
51 54 54 60 59 54 56 53 49 39 8 19 8 4 25 7 17 22 8 9 5 5 5 3 5 2 6 7 5 9 5 6 6 11 1 3 7 4 11 8 10 7 5 1 3 6 9
52 55 57 59 60 53 55 56 48 35 5 12 5 2 18 15 19 11 8 7 8 10 2 8 5 7 6 5 6 6 5 8 10 7 16 4 3 10 6 14 5 11 7 8 1 4 6
51 57 58 59 56 55 54 54 50 31 3 7 4 4 14 16 11 7 5 5 6 11 22 12 8 9 6 6 7 6 7 8 14 4 5 3 6 2 7 5 16 9 6 6 4 4 2
52 55 57 60 58 51 53 56 51 31 10 5 5 4 17 14 7 5 6 9 13 12 11 10 8 9 7 6 7 5 9 7 20 6 7 4 1 4 1 5 2 12 7 4 3 5 7
55 54 58 60 62 58 57 55 54 33 13 8 5 4 21 26 14 11 9 6 7 16 9 13 6 7 7 8 11 7 5 3 10 8 6 2 4 8 10 5 5 6 4 5 7 5 5
51 54 59 60 62 59 60 58 57 36 17 8 10 5 5 5 14 11 9 4 6 5 8 16 7 11 6 6 5 6 5 8 9 14 9 7 6 4 5 2 9 4 4 2 7 6 9
52 56 58 59 62 63 64 63 59 52 29 23 10 8 16 9 6 8 11 6 7 6 7 5 10 4 8 7 5 5 4 2 2 11 7 8 3 4 5 14 13 8 6 9 5 5 5
57 57 56 59 63 61 62 63 64 63 47 25 21 20 7 15 5 5 4 5 5 10 12 11 9 7 6 5 7 3 4 2 4 5 3 3 5 5 5 7 10 3 4 3 3 4 1
53 56 58 58 58 61 59 58 57 59 61 46 28 14 8 4 7 6 5 10 9 4 10 8 12 6 6 5 14 22 23 17 15 17 11 6 6 5 5 2 2 3 4 4 5 5 6
55 52 55 56 57 58 58 55 50 46 46 46 39 13 9 7 18 13 12 11 15 16 8 8 6 3 2 8 5 5 2 4 8 15 10 8 4 5 5 4 1 7 6 3 6 4 3
50 52 52 54 53 56 56 55 50 40 37 33 36 25 13 20 3 9 9 7 6 5 3 4 6 7 5 3 4 6 5 1 4 5 14 11 10 5 5 5 8 7 4 3 9 5 3
48 50 52 52 52 52 51 53 51 40 30 29 30 22 12 16 7 6 6 7 8 7 6 4 4 5 8 3 4 4 2 2 5 4 6 5 6 6 1 4 4 7 5 9 8 5 7
48 51 51 50 49 49 48 51 47 44 24 23 26 26 10 14 17 13 13 12 11 6 6 4 6 9 6 6 4 1 5 3 8 4 3 5 5 1 5 5 8 4 3 6 4 2 26
46 48 48 49 48 48 46 47 47 40 26 16 14 17 15 13 20 25 26 23 21 15 12 7 8 6 4 5 4 6 5 5 7 2 9 3 4 3 7 5 2 8 5 7 11 32 38
Wind_Direction_500mb
351 346 343 342 341 339 340 338 338 340 343 344 346 349 351 355 354 324 266 241 233 229 227 228 225 213 207 228 254 299 206 169 174 173 187 176 175 154 163 171 149 176 251 249 262 277 275
354 349 346 344 340 338 336 334 332 334 336 336 337 340 346 353 359 350 329 254 234 229 226 222 216 209 210 230 245 229 173 172 179 179 187 188 191 170 140 154 172 196 237 269 278 262 239
350 346 344 342 338 334 334 332 333 331 330 329 328 330 339 345 354 353 323 323 253 231 224 218 212 210 233 246 216 181 180 174 181 189 189 184 172 170 161 138 253 253 313 316 279 253 208
353 347 342 339 335 333 331 330 328 327 325 325 323 323 326 333 341 344 332 298 275 225 214 208 208 218 248 233 218 200 186 187 185 192 196 187 167 165 168 127 27 24 49 347 310 133 1
350 345 340 336 333 331 329 326 324 321 320 320 321 318 317 321 328 336 335 320 252 198 193 193 200 208 254 221 214 194 187 187 177 170 157 176 180 155 128 98 15 3 230 206 324 23 106
345 339 338 337 334 330 327 325 321 318 316 314 314 313 310 311 313 320 316 341 143 162 168 178 199 222 230 184 183 181 176 176 154 154 133 145 129 94 53 112 223 192 215 232 255 349 42
344 340 336 335 333 331 328 325 323 321 318 314 310 309 303 300 295 289 244 140 137 155 190 201 196 190 142 154 150 169 166 162 142 156 143 88 135 213 188 195 132 128 174 245 231 229 20
339 337 336 333 332 331 329 328 326 323 321 317 311 305 299 289 278 257 223 212 220 191 273 234 232 224 172 157 134 171 169 169 151 160 126 48 242 196 151 168 179 151 233 261 278 237 156
343 342 344 340 340 335 332 330 327 323 320 316 308 302 296 279 262 234 216 220 227 235 120 237 210 219 216 204 156 176 180 160 125 134 178 166 204 95 137 146 163 206 189 213 224 47 243
351 351 350 347 343 339 336 332 328 323 320 315 307 302 293 264 241 217 209 206 209 197 70 212 208 169 165 170 91 168 175 165 75 181 159 231 264 162 181 197 157 250 208 199 152 113 222
356 351 349 350 347 343 340 336 331 326 323 315 307 307 293 219 200 180 193 186 182 159 23 133 139 128 136 145 132 49 166 121 152 169 127 245 161 147 164 215 162 220 129 165 152 172 85
6 2 358 354 351 347 343 341 337 331 327 316 306 322 314 187 188 184 168 160 147 59 247 93 67 79 93 33 59 103 109 91 81 145 348 247 266 255 215 135 178 138 84 50 54 108 251
359 355 4 359 355 350 348 349 345 337 329 311 170 38 29 170 185 177 166 154 67 159 342 9 30 38 82 12 47 50 49 33 49 126 0 322 248 308 47 126 54 94 72 323 317 166 233
1 1 0 359 355 352 353 354 351 345 337 184 143 67 35 207 185 176 161 72 186 93 51 330 37 72 82 5 37 39 91 69 27 25 79 37 304 3 333 36 206 173 162 172 238 206 235
12 8 7 1 357 354 357 356 357 355 359 151 141 84 21 144 172 171 163 73 101 193 277 358 82 102 63 8 98 88 62 94 42 16 101 42 266 329 25 335 10 150 169 193 175 86 110
10 9 7 5 1 357 357 360 0 3 54 159 158 352 15 116 154 157 80 99 104 28 335 219 112 340 132 352 83 80 114 343 104 45 330 152 304 73 296 340 26 60 9 225 15 262 247
12 11 8 7 3 3 359 359 3 10 55 179 245 127 13 122 133 83 100 93 115 38 57 26 118 95 65 106 58 61 94 24 4 21 56 30 98 302 5 17 334 348 24 17 94 48 251
13 13 10 8 5 8 5 1 0 10 15 194 265 75 9 159 58 44 69 49 59 3 34 41 76 66 75 46 67 91 114 49 357 357 71 29 104 225 83 328 75 66 61 64 152 276 9
13 12 11 9 9 10 10 5 3 4 13 189 131 70 28 163 115 98 86 73 57 26 31 32 63 40 36 80 98 61 84 112 35 52 147 144 158 64 165 269 101 62 5 9 94 89 225
16 11 13 12 11 14 15 13 8 11 21 147 120 65 36 60 63 104 117 71 100 41 61 55 71 67 75 58 24 114 94 77 9 19 31 171 108 161 192 164 118 139 83 50 104 120 224
16 12 13 12 13 18 16 16 19 19 23 117 60 83 57 31 27 73 78 72 100 70 66 41 58 60 79 99 70 83 53 6 51 10 46 81 140 91 185 249 93 97 63 90 178 198 167
15 16 15 14 14 17 19 19 25 29 45 80 80 106 76 71 60 53 18 46 103 106 32 30 96 82 45 93 80 150 109 52 42 3 58 3 113 91 328 54 104 96 16 89 90 126 88
18 14 16 15 15 17 20 21 24 33 47 63 68 82 96 17 38 72 14 122 95 115 40 64 125 105 96 100 63 343 247 185 57 62 84 74 99 71 279 136 139 40 286 27 124 76 81
21 12 15 17 16 16 18 23 25 31 36 47 50 64 80 49 61 75 106 87 91 73 124 114 104 106 133 330 92 77 81 87 86 358 189 134 113 103 204 48 346 156 34 49 106 74 20
18 17 16 15 15 15 18 19 22 32 35 35 39 53 72 99 102 89 89 105 94 79 77 105 85 72 326 136 120 114 66 78 39 33 65 55 119 85 122 192 327 342 308 79 111 286 245
14 11 13 11 13 13 15 14 17 22 34 34 40 48 73 123 19 121 106 117 122 111 59 79 73 79 67 92 107 124 154 146 123 105 42 58 41 109 78 130 235 224 282 308 153 296 39
11 7 9 9 9 9 11 7 10 15 28 32 34 39 66 97 76 114 106 135 116 116 109 100 48 61 35 61 80 113 123 309 119 87 338 11 13 114 107 204 311 248 314 142 83 240 30
6 4 6 3 2 4 6 2 2 5 23 26 33 36 63 98 85 95 99 109 113 104 122 125 93 23 49 72 111 126 94 85 84 98 128 98 76 72 69 57 289 354 94 140 167 45 337
359 360 359 358 356 357 359 356 354 354 2 28 34 42 88 97 110 109 96 93 91 85 109 74 105 92 76 101 53 86 69 49 151 122 25 344 174 196 173 213 160 313 260 149 18 336 330
Wind_Speed_850mb
30 29 29 29 29 29 28 28 26 26 26 27 27 27 29 32 24 12 11 15 17 18 18 18 17 16 12 11 16 12 1 36 40 40 35 39 42 16 11 9 11 7 7 16 28 27 24
32 31 28 28 30 30 30 29 28 27 27 27 26 27 28 29 28 14 7 7 13 16 17 17 17 17 15 7 9 5 20 30 39 39 36 33 28 21 12 7 9 8 9 18 20 26 12
40 31 29 30 31 31 31 32 31 32 30 29 28 27 26 26 26 16 8 4 6 13 16 16 17 16 17 20 5 11 25 29 31 31 33 31 20 23 14 7 3 3 8 12 4 2 8
37 36 36 36 35 34 34 34 34 33 34 32 30 28 25 23 22 17 11 8 8 10 14 15 15 14 13 11 18 17 28 28 26 24 19 28 19 17 5 7 8 5 7 6 3 3 6
39 39 38 39 40 40 39 38 37 37 36 36 33 29 27 23 20 18 12 6 4 8 14 15 15 13 9 8 18 25 27 26 26 23 17 25 21 7 7 10 7 9 5 6 12 4 3
39 41 41 41 43 42 42 41 40 39 38 36 33 30 26 22 17 15 9 2 5 11 17 15 12 7 13 5 12 28 29 24 21 27 20 12 7 6 6 7 9 10 7 6 7 4 8
46 43 44 45 44 44 43 40 40 38 37 34 32 28 25 21 17 12 7 8 9 6 21 12 8 2 7 12 17 29 32 27 28 13 8 3 5 14 16 13 6 11 6 5 5 6 4
48 47 46 47 44 43 41 40 38 38 35 32 30 26 23 20 17 13 15 10 9 4 5 22 20 17 7 14 8 31 33 17 12 9 9 9 15 10 11 8 8 4 3 11 10 4 11
48 45 43 42 43 42 40 39 39 38 35 32 31 28 22 19 17 17 19 16 11 6 2 4 7 11 21 18 4 30 35 15 7 10 10 11 6 10 12 8 11 8 11 10 16 2 3
46 45 46 44 44 43 42 41 40 39 35 32 30 28 22 17 14 20 20 18 11 7 7 5 6 5 10 12 5 18 28 7 4 13 14 9 3 8 7 10 14 6 17 11 8 6 6
41 46 46 48 48 44 42 42 42 39 34 29 27 24 18 18 11 24 13 18 12 9 2 3 5 7 12 9 17 5 17 4 12 9 10 7 8 6 5 10 15 12 8 12 8 8 2
48 52 50 49 49 47 43 42 42 39 32 23 13 13 6 17 22 21 20 17 14 8 10 4 4 3 8 10 6 8 6 10 6 6 3 10 4 4 8 3 8 9 9 11 7 6 5
38 40 49 53 52 51 46 43 43 41 33 15 4 7 3 12 19 24 22 20 7 7 6 6 5 6 11 10 9 9 9 13 6 4 7 9 3 3 1 5 1 6 9 4 3 1 9
47 48 49 52 54 51 49 47 46 45 29 6 18 14 7 5 16 24 25 5 7 4 5 4 5 7 9 10 8 8 8 6 11 8 6 4 2 10 15 5 3 7 11 8 9 6 4
48 52 56 55 55 51 50 52 49 43 18 24 12 10 19 3 17 24 9 7 3 2 3 4 3 8 4 5 7 11 9 5 10 9 5 2 6 10 5 7 5 4 6 3 1 1 2
51 54 54 60 59 54 56 53 49 39 8 19 8 4 25 7 17 22 8 9 5 5 5 3 5 2 6 7 5 9 5 6 6 11 1 3 7 4 11 8 10 7 5 1 3 6 9
52 55 57 59 60 53 55 56 48 35 5 12 5 2 18 15 19 11 8 7 8 10 2 8 5 7 6 5 6 6 5 8 10 7 16 4 3 10 6 14 5 11 7 8 1 4 6
51 57 58 59 56 55 54 54 50 31 3 7 4 4 14 16 11 7 5 5 6 11 22 12 8 9 6 6 7 6 7 8 14 4 5 3 6 2 7 5 16 9 6 6 4 4 2
52 55 57 60 58 51 53 56 51 31 10 5 5 4 17 14 7 5 6 9 13 12 11 10 8 9 7 6 7 5 9 7 20 6 7 4 1 4 1 5 2 12 7 4 3 5 7
55 54 58 60 62 58 57 55 54 33 13 8 5 4 21 26 14 11 9 6 7 16 9 13 6 7 7 8 11 7 5 3 10 8 6 2 4 8 10 5 5 6 4 5 7 5 5
51 54 59 60 62 59 60 58 57 36 17 8 10 5 5 5 14 11 9 4 6 5 8 16 7 11 6 6 5 6 5 8 9 14 9 7 6 4 5 2 9 4 4 2 7 6 9
52 56 58 59 62 63 64 63 59 52 29 23 10 8 16 9 6 8 11 6 7 6 7 5 10 4 8 7 5 5 4 2 2 11 7 8 3 4 5 14 13 8 6 9 5 5 5
57 57 56 59 63 61 62 63 64 63 47 25 21 20 7 15 5 5 4 5 5 10 12 11 9 7 6 5 7 3 4 2 4 5 3 3 5 5 5 7 10 3 4 3 3 4 1
53 56 58 58 58 61 59 58 57 59 61 46 28 14 8 4 7 6 5 10 9 4 10 8 12 6 6 5 14 22 23 17 15 17 11 6 6 5 5 2 2 3 4 4 5 5 6
55 52 55 56 57 58 58 55 50 46 46 46 39 13 9 7 18 13 12 11 15 16 8 8 6 3 2 8 5 5 2 4 8 15 10 8 4 5 5 4 1 7 6 3 6 4 3
50 52 52 54 53 56 56 55 50 40 37 33 36 25 13 20 3 9 9 7 6 5 3 4 6 7 5 3 4 6 5 1 4 5 14 11 10 5 5 5 8 7 4 3 9 5 3
48 50 52 52 52 52 51 53 51 40 30 29 30 22 12 16 7 6 6 7 8 7 6 4 4 5 8 3 4 4 2 2 5 4 6 5 6 6 1 4 4 7 5 9 8 5 7
48 51 51 50 49 49 48 51 47 44 24 23 26 26 10 14 17 13 13 12 11 6 6 4 6 9 6 6 4 1 5 3 8 4 3 5 5 1 5 5 8 4 3 6 4 2 26
46 48 48 49 48 48 46 47 47 40 26 16 14 17 15 13 20 25 26 23 21 15 12 7 8 6 4 5 4 6 5 5 7 2 9 3 4 3 7 5 2 8 5 7 11 32 38
Wind_Direction_850mb
351 346 343 342 341 339 340 338 338 340 343 344 346 349 351 355 354 324 266 241 233 229 227 228 225 213 207 228 254 299 206 169 174 173 187 176 175 154 163 171 149 176 251 249 262 277 275
354 349 346 344 340 338 336 334 332 334 336 336 337 340 346 353 359 350 329 254 234 229 226 222 216 209 210 230 245 229 173 172 179 179 187 188 191 170 140 154 172 196 237 269 278 262 239
350 346 344 342 338 334 334 332 333 331 330 329 328 330 339 345 354 353 323 323 253 231 224 218 212 210 233 246 216 181 180 174 181 189 189 184 172 170 161 138 253 253 313 316 279 253 208
353 347 342 339 335 333 331 330 328 327 325 325 323 323 326 333 341 344 332 298 275 225 214 208 208 218 248 233 218 200 186 187 185 192 196 187 167 165 168 127 27 24 49 347 310 133 1
350 345 340 336 333 331 329 326 324 321 320 320 321 318 317 321 328 336 335 320 252 198 193 193 200 208 254 221 214 194 187 187 177 170 157 176 180 155 128 98 15 3 230 206 324 23 106
345 339 338 337 334 330 327 325 321 318 316 314 314 313 310 311 313 320 316 341 143 162 168 178 199 222 230 184 183 181 176 176 154 154 133 145 129 94 53 112 223 192 215 232 255 349 42
344 340 336 335 333 331 328 325 323 321 318 314 310 309 303 300 295 289 244 140 137 155 190 201 196 190 142 154 150 169 166 162 142 156 143 88 135 213 188 195 132 128 174 245 231 229 20
339 337 336 333 332 331 329 328 326 323 321 317 311 305 299 289 278 257 223 212 220 191 273 234 232 224 172 157 134 171 169 169 151 160 126 48 242 196 151 168 179 151 233 261 278 237 156
343 342 344 340 340 335 332 330 327 323 320 316 308 302 296 279 262 234 216 220 227 235 120 237 210 219 216 204 156 176 180 160 125 134 178 166 204 95 137 146 163 206 189 213 224 47 243
351 351 350 347 343 339 336 332 328 323 320 315 307 302 293 264 241 217 209 206 209 197 70 212 208 169 165 170 91 168 175 165 75 181 159 231 264 162 181 197 157 250 208 199 152 113 222
356 351 349 350 347 343 340 336 331 326 323 315 307 307 293 219 200 180 193 186 182 159 23 133 139 128 136 145 132 49 166 121 152 169 127 245 161 147 164 215 162 220 129 165 152 172 85
6 2 358 354 351 347 343 341 337 331 327 316 306 322 314 187 188 184 168 160 147 59 247 93 67 79 93 33 59 103 109 91 81 145 348 247 266 255 215 135 178 138 84 50 54 108 251
359 355 4 359 355 350 348 349 345 337 329 311 170 38 29 170 185 177 166 154 67 159 342 9 30 38 82 12 47 50 49 33 49 126 0 322 248 308 47 126 54 94 72 323 317 166 233
1 1 0 359 355 352 353 354 351 345 337 184 143 67 35 207 185 176 161 72 186 93 51 330 37 72 82 5 37 39 91 69 27 25 79 37 304 3 333 36 206 173 162 172 238 206 235
12 8 7 1 357 354 357 356 357 355 359 151 141 84 21 144 172 171 163 73 101 193 277 358 82 102 63 8 98 88 62 94 42 16 101 42 266 329 25 335 10 150 169 193 175 86 110
10 9 7 5 1 357 357 360 0 3 54 159 158 352 15 116 154 157 80 99 104 28 335 219 112 340 132 352 83 80 114 343 104 45 330 152 304 73 296 340 26 60 9 225 15 262 247
12 11 8 7 3 3 359 359 3 10 55 179 245 127 13 122 133 83 100 93 115 38 57 26 118 95 65 106 58 61 94 24 4 21 56 30 98 302 5 17 334 348 24 17 94 48 251
13 13 10 8 5 8 5 1 0 10 15 194 265 75 9 159 58 44 69 49 59 3 34 41 76 66 75 46 67 91 114 49 357 357 71 29 104 225 83 328 75 66 61 64 152 276 9
13 12 11 9 9 10 10 5 3 4 13 189 131 70 28 163 115 98 86 73 57 26 31 32 63 40 36 80 98 61 84 112 35 52 147 144 158 64 165 269 101 62 5 9 94 89 225
16 11 13 12 11 14 15 13 8 11 21 147 120 65 36 60 63 104 117 71 100 41 61 55 71 67 75 58 24 114 94 77 9 19 31 171 108 161 192 164 118 139 83 50 104 120 224
16 12 13 12 13 18 16 16 19 19 23 117 60 83 57 31 27 73 78 72 100 70 66 41 58 60 79 99 70 83 53 6 51 10 46 81 140 91 185 249 93 97 63 90 178 198 167
15 16 15 14 14 17 19 19 25 29 45 80 80 106 76 71 60 53 18 46 103 106 32 30 96 82 45 93 80 150 109 52 42 3 58 3 113 91 328 54 104 96 16 89 90 126 88
18 14 16 15 15 17 20 21 24 33 47 63 68 82 96 17 38 72 14 122 95 115 40 64 125 105 96 100 63 343 247 185 57 62 84 74 99 71 279 136 139 40 286 27 124 76 81
21 12 15 17 16 16 18 23 25 31 36 47 50 64 80 49 61 75 106 87 91 73 124 114 104 106 133 330 92 77 81 87 86 358 189 134 113 103 204 48 346 156 34 49 106 74 20
18 17 16 15 15 15 18 19 22 32 35 35 39 53 72 99 102 89 89 105 94 79 77 105 85 72 326 136 120 114 66 78 39 33 65 55 119 85 122 192 327 342 308 79 111 286 245
14 11 13 11 13 13 15 14 17 22 34 34 40 48 73 123 19 121 106 117 122 111 59 79 73 79 67 92 107 124 154 146 123 105 42 58 41 109 78 130 235 224 282 308 153 296 39
11 7 9 9 9 9 11 7 10 15 28 32 34 39 66 97 76 114 106 135 116 116 109 100 48 61 35 61 80 113 123 309 119 87 338 11 13 114 107 204 311 248 314 142 83 240 30
6 4 6 3 2 4 6 2 2 5 23 26 33 36 63 98 85 95 99 109 113 104 122 125 93 23 49 72 111 126 94 85 84 98 128 98 76 72 69 57 289 354 94 140 167 45 337
359 360 359 358 356 357 359 356 354 354 2 28 34 42 88 97 110 109 96 93 91 85 109 74 105 92 76 101 53 86 69 49 151 122 25 344 174 196 173 213 160 313 260 149 18 336 330